Overview Statistics Trail Chart Weather Telemetry Raw packets
 

This is the latest recevied weather packets stored in our database for station/object CW79215. If no packets are shown the sender has not sent any weather packets the latest 10 day(s).

<< 15 16 17 18 19 20 21 >>
Time Temp. Humidity Pressure Rain* Wind** Luminosity Snow
1788336336 20.56° C 52% 1031.8 hPa - - - -
1788335436 18.89° C 57% 1031.6 hPa - - - -
1788334536 18.89° C 56% 1031.7 hPa - - - -
1788333636 18.89° C 56% 1031.5 hPa - - - -
1788332736 18.33° C 58% 1031.4 hPa - - - -
1788331836 14.44° C 70% 1031.8 hPa - - - -
1788330936 14.44° C 68% 1031.7 hPa - - - -
1788330036 14.44° C 70% 1031.7 hPa - - - -
1788329149 14.44° C 67% 1031.9 hPa - - - -
1788328236 13.89° C 70% 1031.8 hPa - - - -
1788327335 11.67° C 79% 1031.8 hPa - - - -
1788326435 11.67° C 79% 1031.8 hPa - - - -
1788325535 11.67° C 79% 1031.7 hPa - - - -
1788324635 11.11° C 80% 1031.5 hPa - - - -
1788323735 11.11° C 79% 1031.5 hPa - - - -
1788322834 11.11° C 79% 1031.5 hPa - - - -
1788321934 11.11° C 79% 1031.6 hPa - - - -
1788321034 12.22° C 77% 1031.6 hPa - - - -
1788320134 12.22° C 76% 1031.6 hPa - - - -
1788319234 11.67° C 79% 1031.6 hPa - - - -
1788318334 11.67° C 78% 1031.6 hPa - - - -
1788317434 11.67° C 78% 1031.7 hPa - - - -
1788316536 11.67° C 78% 1031.7 hPa - - - -
1788315636 11.67° C 78% 1031.6 hPa - - - -
1788314736 12.22° C 77% 1031.6 hPa - - - -

* Rain since midnight (hover to see other rain measurements)
** Current wind speed in m/s (hover to see current wind gust speed)